Location: ??????
(54.8333°N, 39.1667°E)
Time: 13:12:58
(UTC+00:00)

Daily predictions for brighter satellites

Satellite Brightness Start Highest point End
(mag) Time Altitude Azimuth Time Altitude Azimuth Time Altitude Azimuth
Cosmos 1725 Rocket 4.1 17:55:18 10° S 18:01:34 85° E 18:07:50 10° NNE
DEBRIS 3.8 18:00:02 10° SW 18:02:53 37° SSE 18:10:06 10° E
Cosmos 1331 Rocket 4.5 17:57:50 10° SW 18:03:03 69° WNW 18:08:16 10° NNE
Okean-O 2.7 17:59:28 10° SSE 18:03:51 90° WSW 18:08:16 10° NNW
Cosmos 2228 2.9 18:00:19 10° S 18:04:22 65° E 18:08:27 10° NNE
Tsikada Rocket 4.1 17:58:23 10° N 18:04:37 88° ENE 18:10:46 10° S
DNEPR-1 R/B 4.4 18:00:01 10° NW 18:05:10 72° NE 18:11:28 10° SE
Cosmos 1452 Rocket 3.6 18:00:05 10° SSW 18:05:19 86° WNW 18:10:36 10° NNE
Cosmos 1437 Rocket 3.9 18:03:15 10° SE 18:06:04 22° E 18:08:54 10° NE
Meteor 1-27 4.3 18:03:59 10° S 18:09:37 88° E 18:15:14 10° NNE
Cosmos 2278 4.0 18:04:41 10° NNW 18:10:25 65° NE 18:16:05 10° SE
ADEOS 4.3 18:06:30 10° S 18:11:35 52° W 18:16:43 10° NNW
USA 186 1.5 18:09:44 10° S 18:12:27 75° WSW 18:15:14 10° NNW
Cosmos 1758 Rocket 3.7 18:08:59 10° N 18:13:21 67° ENE 18:17:46 10° SSE
SL-16 R/B 2.3 18:09:49 10° NNW 18:15:32 82° NE 18:21:14 10° SE
Cosmos 1302 Rocket 4.0 18:10:38 10° SSW 18:15:47 77° ESE 18:21:01 10° NNE
ISS -3.3 18:13:25 10° WSW 18:16:36 40° SSE 18:19:45 10° E
Cosmos 2016 Rocket 4.1 18:10:45 10° SSW 18:17:00 84° W 18:23:14 10° N
CZ-4C R/B 2.1 18:12:31 10° SW 18:17:00 81° NW 18:22:57 10° NE
EP 1 4.3 18:15:34 10° NW 18:18:13 74° NE 18:20:50 10° SE
Cosmos 724 4.3 18:12:55 10° SW 18:18:56 83° SE 18:24:52 10° NE
NOSS 3 (A) 4.1 18:18:16 10° NW 18:20:17 60° NE 18:22:49 10° ESE
SL-08 R/B 3.4 18:17:39 10° NNE 18:22:33 88° WNW 18:27:18 10° SSW
CZ-4B R/B 2.5 18:20:16 10° SSE 18:23:37 68° ENE 18:27:06 10° N
NOSS 3-3 (C) 4.0 18:24:26 10° SSW 18:29:34 49° SE 18:35:42 10° NE
COSMOS 2406 3.5 18:24:34 10° S 18:30:01 47° ESE 18:35:30 10° NE
Cosmos 1980 Rocket 4.1 18:27:27 10° NW 18:31:57 25° WSW 18:36:26 10° SSW
Meteor 1-20 Rocket 4.2 18:26:47 10° NNW 18:32:23 86° ENE 18:38:03 10° SSE
USA 306 1.6 18:29:32 10° WSW 18:32:24 44° SSE 18:34:17 10° E
Terra 3.6 18:31:25 10° SSW 18:35:27 28° W 18:39:30 10° NNW
Helios 1A Rocket 4.4 18:34:01 10° N 18:36:49 30° WNW 18:39:37 10° SW
YAOGAN 11 4.1 18:32:32 10° NNE 18:37:00 88° ESE 18:41:28 10° SSW
Cosmos 1602 Rocket 3.6 18:33:32 10° N 18:37:51 68° ENE 18:41:56 11° SSE
NOSS 3-4 (A) 3.8 18:33:37 10° NW 18:40:05 86° SW 18:47:25 11° SE
Cosmos 2333 Rocket 2.3 18:34:58 10° NW 18:40:42 78° WSW 18:46:04 12° SSE
NOSS 3-4 (C) 3.8 18:34:14 10° NW 18:40:44 86° SW 18:48:04 11° SE
CZ-4 R/B 4.2 18:41:30 10° WSW 18:42:29 11° W 18:43:27 10° WNW
USA 245 4.5 18:37:54 10° S 18:43:47 75° WSW 18:49:20 10° NNW
Cosmos 2061 Rocket 4.2 18:40:51 10° SSW 18:47:06 80° WNW 18:53:27 10° N
Cosmos 1933 3.3 18:44:42 10° S 18:48:26 60° E 18:52:13 10° NNE
Cosmos 1464 Rocket 4.4 18:44:19 10° SSE 18:50:05 46° E 18:55:58 10° NNE
Cosmos 44 Rocket 4.3 18:45:30 10° WSW 18:50:32 54° NW 18:55:40 10° NE
ATLAS 2AS CENTAUR R/B 3.9 18:44:57 10° W 18:51:33 46° NNW 18:58:05 10° NE
Cosmos 1626 Rocket 4.3 18:50:14 10° NNW 18:54:27 50° W 18:58:40 10° S
Cosmos 1607 4.1 18:52:05 10° SW 18:58:18 79° NW 19:04:38 10° NE
SPOT 3 Rocket 3.9 18:53:13 10° S 18:58:18 61° WSW 19:03:25 10° NNW
Cosmos 2360 Rocket 2.2 18:53:03 10° NNW 18:58:47 89° ENE 19:03:37 15° SSE
Cosmos 1805 2.7 18:56:30 10° N 18:59:47 82° ENE 19:02:14 17° SSE
Ariane Rocket 3.2 18:57:02 11° S 19:01:56 70° WSW 19:07:02 10° NNW
Cosmos 1076 Rocket 3.9 18:58:44 10° N 19:02:54 48° ENE 19:06:00 16° SE
Cosmos 2098 Rocket 3.3 18:58:40 12° S 19:03:03 55° E 19:07:07 10° NNE
Cosmos 2333 4.3 18:57:59 10° NNW 19:03:45 85° ENE 19:08:32 15° SE
Meteor 1-25 Rocket 4.4 18:58:36 10° NNW 19:04:18 74° W 19:09:34 12° S
BREEZE-M DEB (TANK) 2.3 19:03:16 10° SW 19:05:25 22° S 19:05:38 22° SSE
Cosmos 220 Rocket 4.0 19:04:13 10° S 19:08:09 52° ESE 19:12:10 10° NE
Cosmos 1536 4.1 19:06:56 10° N 19:10:03 25° ENE 19:12:23 14° ESE
Cosmos 2219 Rocket 2.3 19:07:16 10° NNW 19:12:58 78° NE 19:17:33 16° SE
Helios 1A 4.1 19:10:16 10° NE 19:13:35 25° E 19:15:28 18° SE
Cosmos 1606 Rocket 3.7 19:12:21 16° S 19:15:41 54° E 19:19:55 10° NNE
Cosmos 2151 4.1 19:13:19 10° NNW 19:17:10 38° W 19:20:58 10° SSW
Cosmos 1763 Rocket 4.2 19:15:44 16° SSE 19:19:19 35° ESE 19:24:06 10° NE
Helios 1B rocket 3.1 19:18:06 17° ESE 19:20:17 34° ENE 19:23:30 10° N
Okean 1 3.4 19:18:42 20° SSE 19:20:51 46° E 19:24:19 10° NNE
Okean O Rocket 3.8 19:17:54 10° SW 19:21:04 20° W 19:24:14 10° NW
Cosmos 990 Rocket 4.0 19:18:51 10° NNW 19:24:04 82° ENE 19:27:52 19° SSE
Cosmos 1726 Rocket 3.7 19:22:24 19° SSE 19:25:00 48° E 19:28:55 10° NNE
Cosmos 2034 Rocket 4.2 19:22:29 15° SSE 19:27:39 58° E 19:33:50 10° NNE
TSX-5 4.3 19:26:31 10° NNW 19:29:27 38° NE 19:31:39 16° ESE
Cosmos 2322 Rocket 2.6 19:24:11 10° NW 19:29:43 57° WSW 19:33:58 17° S
Okean 1-7 Rocket 3.9 19:25:40 10° NNW 19:30:06 65° W 19:33:33 16° S
Cosmos 1461 2.4 19:26:46 10° SW 19:30:27 75° SE 19:34:07 10° NE
RESURS DK-1 3.5 19:27:02 10° NNW 19:30:43 35° NE 19:34:01 12° ESE
CZ-2C R/B 3.5 19:30:01 15° SSW 19:31:51 28° W 19:34:20 10° NW
Cosmos 1470 4.2 19:29:36 10° NNE 19:32:10 20° ENE 19:33:54 14° ESE
CZ-4B R/B 4.5 19:27:58 10° SSW 19:32:22 37° W 19:36:53 10° NNW
Cosmos 1777 Rocket 4.5 19:30:05 10° NW 19:35:11 52° WSW 19:39:00 17° S
Cosmos 2082 Rocket 3.4 19:30:58 10° WSW 19:36:26 45° NW 19:41:56 10° NNE
Cosmos 1437 Rocket 3.9 19:37:13 10° SW 19:40:34 37° WNW 19:43:57 10° N
Cosmos 1975 4.3 19:38:01 10° NNE 19:41:00 23° ENE 19:43:05 15° ESE
Cosmos 1503 Rocket 4.3 19:37:04 10° NNW 19:42:10 58° WSW 19:45:44 19° S
Cosmos 909 Rocket 4.4 19:36:27 10° SW 19:42:43 69° NW 19:49:31 10° NE
Nadezhda 4 Rocket 4.2 19:36:44 10° NNW 19:42:47 64° W 19:47:52 15° S
Meteor 1-26 Rocket 4.5 19:42:46 20° SSE 19:46:32 54° E 19:52:05 10° NNE
Cosmos 2237 Rocket 3.6 19:42:34 10° NNW 19:47:44 34° NE 19:52:52 10° ESE
NOSS 3-3 (A) 4.3 19:43:32 10° WSW 19:49:02 68° NNW 19:55:47 10° NE
Cosmos 44 3.5 19:45:30 10° NW 19:50:57 82° SW 19:54:37 21° SE
IKONOS-2 4.5 19:47:12 10° NNE 19:51:19 63° ESE 19:53:46 23° S
Cosmos 1634 Rocket 4.3 19:48:18 20° SSE 19:52:25 51° E 19:58:24 10° NNE
ISS -3.5 19:49:52 10° W 19:53:06 46° S 19:54:30 27° SE
Cosmos 1354 Rocket 4.2 19:50:35 10° NNW 19:55:47 63° WSW 19:59:07 22° S
Cosmos-2242 3.1 19:54:02 25° SSE 19:56:15 57° E 20:00:19 10° NNE
COSMOS 2428 3.0 19:50:48 10° NNW 19:56:30 63° NE 20:00:54 17° SE
SL-16 R/B 3.9 19:54:39 10° NW 19:59:00 23° WSW 20:03:19 10° SSW
USA 306 3.0 19:57:09 10° W 19:58:04 18° W 19:58:04 18° W
CZ-2C R/B 4.2 19:56:07 10° ESE 20:00:23 26° NE 20:04:37 10° N
KORONAS-FOTON 4.2 19:59:46 29° SE 20:00:52 38° E 20:04:03 10° NNE
USA 290 2.1 20:01:14 23° SSW 20:03:03 86° WNW 20:06:13 10° NNE
Cosmos 1707 1.9 20:04:33 42° SSE 20:05:19 66° E 20:08:08 10° NNE
Cosmos 2026 Rocket 4.2 19:59:24 10° NNW 20:05:48 74° W 20:10:23 20° S
CZ-4C R/B 3.7 20:01:11 10° W 20:05:58 40° N 20:12:09 10° ENE
Cosmos 372 Rocket 3.9 20:02:25 10° NNW 20:07:35 85° ENE 20:10:44 24° SSE
Cosmos 1953 Rocket 4.0 20:05:52 10° NNW 20:10:07 52° W 20:12:42 22° SSW
COSMOS 2406 4.3 20:08:50 10° WSW 20:14:23 47° NW 20:19:55 10° NNE
Aureole 1 Rocket 4.0 20:11:01 10° NNW 20:16:30 70° WSW 20:20:45 23° S
Meteor 1-14 Rocket 4.3 20:12:26 10° N 20:18:00 70° ENE 20:21:27 24° SSE
Cosmos 1271 Rocket 3.1 20:19:22 31° SE 20:20:16 38° E 20:23:27 10° NNE
Cosmos 2221 3.4 20:18:37 24° SE 20:20:17 34° E 20:24:06 10° NNE
GP-B 4.4 20:18:23 10° NNE 20:22:14 29° E 20:24:23 19° SE
Cosmos 540 Rocket 3.4 20:18:42 17° SSW 20:22:44 88° ESE 20:27:54 10° NNE
Cosmos 2058 Rocket 3.0 20:20:44 26° S 20:23:11 88° E 20:27:32 10° NNE
Cosmos 2333 Rocket 4.2 20:20:29 10° WNW 20:24:06 18° W 20:27:45 10° SW
Cosmos 1937 Rocket 3.6 20:20:14 10° NNW 20:25:24 70° ENE 20:28:40 22° SE
Cosmos 1766 3.8 20:25:06 10° NNW 20:28:07 37° W 20:29:18 26° SW
Geosat 4.0 20:25:06 10° NNE 20:30:08 86° NW 20:34:37 13° SW
Spot 4 3.8 20:28:46 27° SSE 20:31:24 87° WSW 20:36:14 10° NNW
ARGOS Delta rocket 4.4 20:27:51 10° NNE 20:32:51 52° E 20:35:39 26° SSE
BREEZE-M R/B 4.3 20:26:29 10° W 20:33:48 54° SSW 20:39:27 10° ESE
Cosmos 468 Rocket 4.0 20:30:46 24° S 20:33:58 68° ESE 20:39:12 10° NNE
Cosmos 1842 2.6 20:33:12 44° SSE 20:34:03 69° E 20:37:12 10° NNE
Cosmos 1833 4.2 20:29:39 12° SW 20:34:54 85° NW 20:40:34 10° NNE
ARIANE 5 R/B 2.6 20:34:30 29° S 20:36:45 78° WSW 20:41:15 10° NNW
CZ-2C R/B 4.3 20:31:56 10° NNE 20:37:09 34° E 20:40:12 21° SE
Cosmos 2297 Rocket 3.6 20:35:27 18° SE 20:37:36 23° ESE 20:41:54 10° NE
ALOS 2 2.5 20:35:46 29° SSE 20:37:59 89° WSW 20:42:25 10° NNW
Meteor 2-6 Rocket 4.3 20:35:51 24° S 20:39:40 78° E 20:45:38 10° NNE
USA 234 3.9 20:35:45 10° ENE 20:41:40 35° SE 20:44:47 23° S
Cosmos 2360 Rocket 3.9 20:37:57 10° NW 20:42:04 21° WSW 20:45:21 13° SW
Cosmos 2322 3.8 20:36:28 10° NW 20:42:08 68° WSW 20:45:23 26° SSE
ATLAS 2AS CENTAUR R/B 4.0 20:37:21 10° WNW 20:43:48 42° N 20:50:12 10° E
Cosmos 1536 3.7 20:41:59 10° NNW 20:45:22 35° W 20:46:54 24° SW
Helios 1A 3.9 20:44:41 10° N 20:48:24 41° WNW 20:51:10 16° SW
Helios 1B rocket 3.6 20:52:03 20° SW 20:53:20 25° W 20:56:18 10° NW
PSLV R/B 3.7 20:51:09 10° NNE 20:55:24 62° ESE 20:57:18 31° S
Cosmos 2219 Rocket 3.6 20:51:51 10° NW 20:56:22 25° WSW 20:59:14 17° SW
Cosmos 1898 Rocket 3.7 20:51:54 10° NNW 20:56:59 57° WSW 20:59:35 28° S
SeaSat 1 3.1 20:55:07 13° ESE 20:59:24 54° NE 21:04:12 10° NNW
Meteor 1-19 Rocket 4.4 20:57:24 26° S 21:00:46 71° E 21:06:42 10° NNE
Cosmos 1763 Rocket 4.3 20:55:47 10° SW 21:00:55 50° NW 21:06:03 10° NNE
Cosmos 1766 Rocket 4.2 20:57:03 10° N 21:01:12 45° ENE 21:03:33 23° SE
Cosmos 1470 3.3 21:03:08 10° NNW 21:06:12 35° W 21:07:06 29° SW
RESURS DK-1 2.9 21:04:24 10° NW 21:08:08 39° WSW 21:09:14 32° SSW
Cosmos 2322 Rocket 4.4 21:10:39 10° WNW 21:12:33 12° W 21:14:28 10° WSW
NOSS 0 Rocket 4.1 21:06:34 10° NW 21:12:38 61° WSW 21:16:09 26° S
NOSS 8 (H) 4.0 21:11:40 10° NW 21:14:30 58° SW 21:14:47 54° SSW
BREEZE-M DEB (TANK) 3.8 21:09:07 10° W 21:15:27 41° SSW 21:20:17 10° ESE
Cosmos 1975 3.4 21:12:39 10° NNW 21:16:07 40° W 21:17:20 30° SW
Intercosmos 24 3.7 21:14:17 10° N 21:18:29 83° ENE 21:19:54 36° SSE
MetOp-A 3.8 21:16:05 29° S 21:18:35 74° WSW 21:23:17 10° NNW
SL-16 R/B 3.3 21:13:58 10° NNW 21:19:24 43° NE 21:24:48 10° ESE
Lacrosse 4 Rocket 2.8 21:25:45 21° SE 21:26:31 22° ESE 21:29:40 10° ENE
ISS -1.5 21:26:45 10° W 21:27:26 14° WSW 21:27:26 14° WSW
Cosmos 841 Rocket 3.5 21:29:04 25° SSW 21:32:14 86° WNW 21:37:31 10° NNE
Cosmos 2237 Rocket 2.2 21:26:35 10° NW 21:32:17 71° WSW 21:35:40 25° SSE
Cosmos 1812 Rocket 3.8 21:33:38 28° SSW 21:35:50 65° WNW 21:40:15 10° N
Meteor 1-11 Rocket 4.1 21:30:21 10° NNW 21:35:53 53° W 21:38:54 26° SSW
Cosmos 1980 3.8 21:30:42 10° NW 21:36:18 63° WSW 21:39:29 26° S
NOSS 8 (E) 4.2 21:34:58 10° WNW 21:37:50 50° SW 21:38:00 50° SSW
Meteor 2-20 Rocket 4.4 21:36:40 26° S 21:40:00 69° E 21:45:41 10° NNE
CZ-2C R/B 2.6 21:37:19 27° S 21:40:13 71° WSW 21:45:26 10° NNW
COSMOS 2428 3.7 21:35:27 10° NW 21:40:26 32° WSW 21:42:51 23° SSW
CZ-4C R/B 4.1 21:38:02 10° NNE 21:41:07 32° E 21:42:10 26° SE
ACS3 Solar Sail 2.6 21:35:33 10° NNE 21:41:09 40° E 21:45:00 19° SSE
Meteor 2-4 Rocket 3.8 21:41:22 26° S 21:44:24 64° E 21:49:54 10° NNE
Meteor 1-10 Rocket 4.5 21:40:49 24° SSW 21:44:33 73° WNW 21:50:31 10° NNE
Cosmos 2227 Rocket 3.3 21:44:30 20° SSE 21:47:22 32° ESE 21:52:19 10° NE
Meteor 2-20 4.5 21:45:33 25° SSW 21:49:21 79° WNW 21:55:30 10° N
Okean 3 Rocket 4.1 21:46:17 10° N 21:50:45 56° ENE 21:53:39 21° SSE
Cosmos 1271 Rocket 4.5 21:52:42 14° WSW 21:54:37 21° WNW 21:57:16 10° NNW
CZ-4C R/B 3.9 21:49:59 10° NW 21:55:28 42° NNE 22:02:30 10° E
Cosmos 192 4.3 21:51:32 10° NNW 21:56:29 75° WSW 21:59:23 25° SSE
Cosmos 2221 3.7 21:54:54 18° WSW 21:57:19 32° WNW 22:01:08 10° N
Cosmos 2263 Rocket 3.6 21:56:11 16° SSE 21:59:15 26° ESE 22:03:46 10° NE
GP-B 3.9 21:55:16 10° N 21:59:22 40° W 22:01:32 23° SW
Meteor 1-27 Rocket 3.8 21:56:56 25° SSW 22:00:30 80° WNW 22:06:17 10° NNE
Cosmos 1842 Rocket 3.7 22:01:31 28° S 22:03:42 64° E 22:08:05 10° NNE
Cosmos 1238 Rocket 2.9 22:02:31 32° SSW 22:04:18 75° WNW 22:08:41 10° N
Cosmos 1805 Rocket 4.1 22:06:27 10° N 22:10:43 54° ENE 22:13:48 18° SSE
Sich 1 2.8 22:09:54 10° NNW 22:14:05 87° WSW 22:16:18 27° S
Iridium 4 Rocket 3.8 22:11:57 24° S 22:15:31 89° W 22:21:24 10° N
Landsat 5 3.4 22:12:58 10° NNE 22:17:06 77° WNW 22:19:05 29° SSW
CZ-2C R/B 3.7 22:11:34 10° N 22:17:09 56° WNW 22:21:10 19° SW
SL-19 R/B 4.3 22:19:08 22° SE 22:20:55 53° ENE 22:24:05 10° N
Cosmos 2297 Rocket 2.2 22:17:12 22° SW 22:21:00 83° WNW 22:26:42 10° NNE
Cosmos 1745 Rocket 4.5 22:16:40 10° N 22:22:44 58° ENE 22:28:46 10° SSE
Cosmos 1655 Rocket 4.3 22:16:46 10° NNW 22:22:48 53° W 22:26:42 22° SSW
Cosmos 1758 3.0 22:19:44 10° NNW 22:23:23 88° ENE 22:25:10 28° SSE
USA 234 3.2 22:18:45 10° ENE 22:25:20 77° SSE 22:31:53 10° WSW
Cosmos 1408 Rocket 3.4 22:31:04 10° NNW 22:35:23 90° ENE 22:38:11 21° S
ATLAS 2AS CENTAUR R/B 2.9 22:28:49 10° NW 22:35:38 72° NE 22:42:26 10° ESE
Cosmos 1340 Rocket 2.7 22:32:53 10° NNW 22:36:44 79° ENE 22:39:16 20° SSE
SeaSat 1 3.1 22:34:43 24° SSW 22:36:58 35° WSW 22:41:28 10° NW
Meteor 2-10 Rocket 4.1 22:32:19 10° NNW 22:37:34 48° W 22:40:59 22° SSW
Iridium 45 4.4 22:37:59 29° S 22:39:38 86° W 22:43:05 10° N
SL-14 R/B 3.1 22:38:08 28° S 22:40:05 90° ESE 22:43:55 10° NNE
EXPRESS MD2 4.5 22:43:31 12° ESE 22:43:31 12° ESE 22:43:53 10° ESE
Cosmos 1125 Rocket 3.5 22:38:52 10° NNW 22:44:11 74° WSW 22:48:46 14° SSE
BlueWalker 3 2.6 22:43:33 28° S 22:44:23 32° SSE 22:47:35 10° E
Cosmos 1066 Rocket 4.3 22:40:54 22° SSW 22:44:28 67° WNW 22:50:00 10° N
Meteor 1-18 Rocket 4.3 22:49:51 21° SSW 22:53:42 72° WNW 22:59:25 10° NNE
DELTA 2 DEB (DPAF) 4.0 22:50:33 10° N 22:54:00 49° WNW 22:55:55 23° SW
Cosmos 2084 3.4 22:50:50 10° WNW 22:54:52 55° SW 22:58:54 10° SSE
Cosmos 1814 Rocket 4.2 22:59:05 19° SW 23:02:49 68° WNW 23:08:04 10° NNE
Cosmos 1953 2.7 22:59:41 10° N 23:03:18 55° ENE 23:06:53 10° SSE
SL-16 R/B 2.4 22:58:09 10° NW 23:03:40 52° WSW 23:08:39 13° S
Lacrosse 4 Rocket 1.6 23:01:08 19° SW 23:03:55 64° NW 23:08:00 10° NE
BREEZE-M DEB (TANK) 3.7 23:07:01 23° SSW 23:07:23 23° S 23:11:38 10° SE
CZ-2D R/B 4.3 23:04:26 10° NE 23:08:24 20° E 23:12:23 10° SE
IDEFIX/ARIANE 42P 2.9 23:03:12 10° NNE 23:08:24 61° ESE 23:12:47 15° S
Cosmos 2219 3.9 23:04:46 15° S 23:09:05 46° ESE 23:14:27 10° NE
NPP 4.2 23:08:18 10° NNE 23:13:36 54° E 23:18:30 12° S
Cosmos 2237 Rocket 3.9 23:12:09 10° WNW 23:15:20 15° W 23:17:27 13° WSW
H-2A R/B 4.3 23:12:17 10° NE 23:16:13 20° E 23:20:10 10° SE
Cosmos 1633 Rocket 3.4 23:13:29 10° N 23:17:48 62° ENE 23:22:05 10° SSE
Cosmos 1151 Rocket 3.2 23:15:33 19° SSW 23:18:28 63° WNW 23:22:47 10° N
Cosmos 1500 Rocket 4.2 23:15:47 10° NNW 23:19:56 40° W 23:22:48 18° SSW
S3M 4.1 23:14:46 14° S 23:20:15 81° E 23:26:25 10° NNE
PSLV R/B 4.2 23:17:58 10° N 23:21:45 50° WNW 23:24:24 18° SW
ACS3 Solar Sail 2.3 23:17:56 10° N 23:23:38 49° WNW 23:28:30 14° SW
Meteor 1-22 Rocket 4.3 23:19:14 10° NNW 23:25:06 74° W 23:30:41 10° S
CENTAUR R/B 4.0 23:20:41 10° SSE 23:25:15 26° ESE 23:30:41 10° ENE
Cosmos 2315 Rocket 4.2 23:22:19 11° S 23:28:25 75° E 23:34:45 10° NNE
Cosmos 2227 Rocket 2.5 23:26:17 14° SW 23:31:06 63° NW 23:36:45 10° NNE
DMSP B5D2-2 4.4 23:27:05 10° SSE 23:32:15 69° ENE 23:37:28 10° NNW
H-2A R/B 3.8 23:31:08 10° SE 23:34:22 34° ENE 23:37:42 10° N
Envisat 4.2 23:31:18 10° NNE 23:36:01 37° E 23:40:42 10° SSE
Cosmos 2263 Rocket 2.3 23:37:50 14° SW 23:42:40 74° NW 23:48:16 10° NNE
BREEZE-M DEB (TANK) 3.1 23:36:03 10° WSW 23:44:06 44° S 23:47:16 10° ESE
MSX 3.9 23:38:22 10° NNE 23:44:10 79° WNW 23:49:33 12° SSW
CZ-4C R/B 3.0 23:38:09 10° NW 23:44:31 79° NE 23:52:45 10° SE
Cosmos 1709 Rocket 4.2 23:39:15 10° NNW 23:45:16 57° W 23:51:20 10° S
SL-16 R/B 4.3 23:42:01 10° ESE 23:47:34 35° NE 23:53:07 10° N
Cosmos 1666 Rocket 3.7 23:44:55 10° NNW 23:49:19 59° W 23:53:40 10° S
Cosmos 1943 3.3 23:43:55 10° NW 23:49:26 56° WSW 23:54:53 10° SSE
Meteor 1-15 Rocket 4.4 23:45:19 10° NNW 23:51:12 67° W 23:57:03 10° S
Cosmos 1867 3.6 23:46:06 10° NW 23:51:33 68° SW 23:56:58 10° SSE
